Pine Bluff, AR

5:20 PM CDT on September 27, 2016 (GMT -0500)
Grider

Weather History for KPBF - June, 2013

Change the Weather History Date:

Friday, June 14, 2013

  Actual Average Record
Temperature  
Mean Temperature 80 °F 79 °F  
Max Temperature 90 °F 89 °F 101 °F (1914)
Min Temperature 70 °F 69 °F 54 °F (1913)
Degree Days  
Heating Degree Days 0 0  
Month to date heating degree days 0 0  
Since 1 June heating degree days 0 0  
Since 1 July heating degree days 2957 2881  
Cooling Degree Days 15 14  
Month to date cooling degree days 166 175  
Year to date cooling degree days 433 482  
Since 1 June cooling degree days 166 175  
Growing Degree Days 31 (Base 50)    
Moisture  
Dew Point 64 °F    
Average Humidity 60    
Maximum Humidity 79    
Minimum Humidity 40    
Precipitation  
Precipitation 0.00 in 0.12 in 2.66 in (1929)
Month to date precipitation 1.02 1.87  
Year to date precipitation 28.46 25.07  
Snow  
Snow 0.00 in 0.00 in - ()
Month to date snowfall 0.0 0.0  
Since 1 June snowfall 0.0 0.0  
Since 1 July snowfall 2.1 3.1  
Snow Depth 0.00 in    
Sea Level Pressure  
Sea Level Pressure 29.98 in    
Wind  
Wind Speed 5 mph (ENE)    
Max Wind Speed 14 mph    
Max Gust Speed 23 mph    
Visibility 10 miles    
Events      
T = Trace of Precipitation, MM = Missing Value Source: NWS Daily Summary

Daily Weather History Graph

Daily Weather History Graph

Search for Another Location

Airport or City:

Trip Planner

Search our weather history database for the weather conditions in past years. The results will help you decide how hot, cold, wet, or windy it might be!

Date:

Astronomy

Jun. 14, 2013 Rise Set
Actual Time 5:55 AM CDT 8:20 PM CDT
Civil Twilight 5:26 AM CDT 8:50 PM CDT
Nautical Twilight 4:50 AM CDT 9:26 PM CDT
Astronomical Twilight 4:10 AM CDT 10:05 PM CDT
Moon 11:18 AM CDT (6/14) No Moon Set
Length of Visible Light 15h 23m
Length of Day
14h 25m
Waxing Crescent, 30% of the Moon is Illuminated
Jun 14
Waxing Crescent
Jun 16
First Quarter
Jun 23
Full
Jun 29
Last Quarter
Jul 8
New

Hourly Weather History & Observations

Time (CDT) Temp. Heat Index Dew Point Humidity Pressure Visibility Wind Dir Wind Speed Gust Speed Precip Events Conditions
12:53 AM 81.0 °F 83.3 °F 66.9 °F 62% 29.95 in 10.0 mi ENE 9.2 mph - N/A   Scattered Clouds
1:53 AM 78.1 °F - 66.0 °F 66% 29.96 in 10.0 mi ENE 6.9 mph - N/A   Scattered Clouds
2:53 AM 77.0 °F - 66.0 °F 69% 29.96 in 10.0 mi East 6.9 mph - N/A   Scattered Clouds
3:53 AM 75.0 °F - 66.0 °F 73% 29.97 in 10.0 mi NE 4.6 mph - N/A   Partly Cloudy
4:53 AM 73.9 °F - 66.0 °F 76% 29.97 in 10.0 mi NE 3.5 mph - N/A   Clear
5:53 AM 73.0 °F - 66.9 °F 81% 29.99 in 10.0 mi East 3.5 mph - N/A   Mostly Cloudy
6:53 AM 73.9 °F - 66.0 °F 76% 30.01 in 10.0 mi NE 3.5 mph - N/A   Scattered Clouds
7:53 AM 77.0 °F - 66.0 °F 69% 30.02 in 10.0 mi ENE 5.8 mph - N/A   Clear
8:53 AM 79.0 °F - 64.0 °F 60% 30.02 in 10.0 mi ENE 8.1 mph - N/A   Clear
9:16 AM 80.6 °F 82.3 °F 64.4 °F 58% 30.03 in 9.0 mi East 8.1 mph - N/A   Partly Cloudy
9:53 AM 82.0 °F 82.4 °F 60.1 °F 47% 30.03 in 10.0 mi East 8.1 mph - N/A   Partly Cloudy
10:53 AM 84.0 °F 84.0 °F 60.1 °F 44% 30.03 in 10.0 mi NE 8.1 mph - N/A   Clear
11:53 AM 84.0 °F 83.8 °F 59.0 °F 43% 30.01 in 10.0 mi ENE 5.8 mph - N/A   Clear
12:53 PM 86.0 °F 85.7 °F 60.1 °F 41% 30.01 in 10.0 mi NE 10.4 mph - N/A   Clear
1:53 PM 88.0 °F 87.9 °F 61.0 °F 40% 29.99 in 10.0 mi ENE 8.1 mph - N/A   Clear
2:53 PM 88.0 °F 87.9 °F 61.0 °F 40% 29.98 in 10.0 mi Variable 5.8 mph - N/A   Clear
3:53 PM 89.1 °F 89.3 °F 62.1 °F 40% 29.97 in 10.0 mi Variable 5.8 mph - N/A   Clear
4:53 PM 89.1 °F 89.3 °F 62.1 °F 40% 29.95 in 10.0 mi Variable 5.8 mph - N/A   Clear
5:53 PM 89.1 °F 89.3 °F 62.1 °F 40% 29.94 in 10.0 mi ENE 9.2 mph - N/A   Clear
6:53 PM 88.0 °F 88.4 °F 62.1 °F 42% 29.94 in 10.0 mi East 8.1 mph - N/A   Clear
7:53 PM 84.0 °F 85.4 °F 64.0 °F 51% 29.95 in 10.0 mi East 5.8 mph - N/A   Clear
8:53 PM 79.0 °F - 66.0 °F 64% 29.95 in 10.0 mi East 4.6 mph - N/A   Clear
9:53 PM 75.9 °F - 66.0 °F 71% 29.98 in 10.0 mi Calm Calm - N/A   Clear
10:53 PM 75.0 °F - 64.9 °F 71% 30.00 in 10.0 mi Calm Calm - N/A   Clear
11:53 PM 71.1 °F - 64.9 °F 81% 30.01 in 10.0 mi Calm Calm - N/A   Clear